Regional Weather Roundup
Issued by NWS

Home | Current Version | Previous Version | Graphics & Text | Print | Product List | Glossary Off
Versions: 1 2 3 4 5 6 7 8 9 10 11 12 13 14 15 16 17 18 19 20 21 22 23 24 25 26 27 28 29 30 31 32 33 34 35 36 37 38 39 40 41 42 43 44 45 46 47 48 49 50

000
ASUS43 KTOP 220859
RWRKS

WEATHER ROUNDUP FOR KANSAS
NATIONAL WEATHER SERVICE GOODLAND KS
400 AM CDT WED MAR 22 2017

NOTE:  "FAIR" INDICATES FEW OR NO CLOUDS BELOW 12,000 FEET WITH NO
SIGNIFICANT WEATHER AND/OR OBSTRUCTIONS TO VISIBILITY.

KSZ001>006-013>018-027>032-041>047-221000-
NORTHWEST KANSAS

CITY           SKY/WX    TMP DP  RH WIND       PRES   REMARKS
GOODLAND       CLOUDY    39  33  79 SE18      30.23F WCI  30
HAYS             N/A     39  26  59 NE10      30.31S WCI  32
HILL CITY      MOCLDY    38  26  62 SE8       30.31F
RUSSELL        MOCLDY    41  25  53 E15       30.29F
$$

KSZ061>065-074>080-084>089-221000-
SOUTHWEST KANSAS

CITY           SKY/WX    TMP DP  RH WIND       PRES   REMARKS
DODGE CITY     CLOUDY    46  34  62 NE12      30.26R
ELKHART          N/A     45  29  53 E12         N/A
GARDEN CITY    CLOUDY    45  31  58 E17       30.24F
GREAT BEND     CLOUDY    43  25  49 NE15      30.29R
LIBERAL        CLOUDY    48  28  46 E10       30.22F
$$

KSZ066>073-081>083-090>101-221000-
SOUTHEAST KANSAS

CITY           SKY/WX    TMP DP  RH WIND       PRES   REMARKS
CHANUTE        CLOUDY    49  22  34 NE13      30.26F
COFFEYVILLE    CLOUDY    53  32  44 NE16      30.23R
HUTCHINSON     CLOUDY    45  26  47 NE16      30.29R
MEDICINE LODGE   N/A     51  29  42 NE14G24   30.23F
NEWTON         CLOUDY    44  27  51 NE13G20   30.29S
PARSONS        CLOUDY    50  34  54 NE7       30.26R
WICHITA INTL   CLOUDY    49  35  58 NE17G29   30.26S
WICHITA JABRA  CLOUDY    47  33  58 NE18G24   30.26F
WINFIELD       CLOUDY    53  28  38 NE13G24   30.23S
$$

KSZ007>012-019>026-033>040-048>060-102>105-221000-
NORTHEAST KANSAS

CITY           SKY/WX    TMP DP  RH WIND       PRES   REMARKS
CONCORDIA      CLOUDY    39  24  55 E13       30.33F WCI  31
EMPORIA        CLOUDY    43  28  55 NE12      30.31S
LAWRENCE       CLOUDY    41  25  53 NE8       30.36R
MANHATTAN      CLOUDY    43  23  45 NE15      30.35S
OLATHE IND     PTCLDY    42  23  46 NE13      30.35R
OLATHE EXE     MOCLDY    41  24  51 NE8       30.34R
SALINA         CLOUDY    45  26  47 NE10      30.33S
TOPEKA BILLARD CLOUDY    44  25  47 NE9       30.36R
TOPEKA FORBES  CLOUDY    44  25  47 NE9       30.35R
$$




USA.gov is the U.S. government's official web portal to all federal, state and local government web resources and services.